TimeAKDT,TemperatureF,Dew PointF,Humidity,Sea Level PressureIn,VisibilityMPH,Wind Direction,Wind SpeedMPH,Gust SpeedMPH,PrecipitationIn,Events,Conditions,WindDirDegrees,DateUTC
12:53 AM,39.0,37.9,96,30.30,10.0,Calm,Calm,-,0.00,,Overcast,0,2012-10-07 08:53:00
1:53 AM,39.0,37.9,96,30.30,10.0,Calm,Calm,-,0.00,,Overcast,0,2012-10-07 09:53:00
2:53 AM,37.9,37.0,97,30.30,10.0,NNW,3.5,-,N/A,,Overcast,330,2012-10-07 10:53:00
3:53 AM,37.9,37.0,97,30.29,6.0,Calm,Calm,-,N/A,,Mostly Cloudy,0,2012-10-07 11:53:00
4:53 AM,37.0,36.0,96,30.28,7.0,NE,4.6,-,N/A,,Mostly Cloudy,40,2012-10-07 12:53:00
5:53 AM,37.0,36.0,96,30.28,8.0,Calm,Calm,-,N/A,,Mostly Cloudy,0,2012-10-07 13:53:00
6:53 AM,36.0,35.1,97,30.28,7.0,Calm,Calm,-,N/A,,Mostly Cloudy,0,2012-10-07 14:53:00
7:53 AM,35.1,34.0,96,30.27,10.0,NE,3.5,-,N/A,,Mostly Cloudy,40,2012-10-07 15:53:00
8:28 AM,35.6,35.6,100,30.25,10.0,Calm,Calm,-,N/A,,Mostly Cloudy,0,2012-10-07 16:28:00
8:53 AM,36.0,35.1,97,30.28,9.0,Calm,Calm,-,N/A,,Mostly Cloudy,0,2012-10-07 16:53:00
9:53 AM,37.9,37.0,97,30.28,8.0,Calm,Calm,-,N/A,,Overcast,0,2012-10-07 17:53:00
10:53 AM,37.9,37.0,97,30.28,9.0,Calm,Calm,-,N/A,,Overcast,0,2012-10-07 18:53:00
11:53 AM,39.9,37.9,93,30.29,9.0,Calm,Calm,-,N/A,,Overcast,0,2012-10-07 19:53:00
12:53 PM,42.1,37.9,85,30.27,10.0,NE,3.5,-,N/A,Fog,Overcast,50,2012-10-07 20:53:00
1:53 PM,43.0,37.9,82,30.26,10.0,Calm,Calm,-,N/A,,Overcast,0,2012-10-07 21:53:00
2:53 PM,44.1,39.0,82,30.25,10.0,Calm,Calm,-,N/A,,Overcast,0,2012-10-07 22:53:00
3:53 PM,44.1,39.0,82,30.25,10.0,Calm,Calm,-,N/A,,Overcast,0,2012-10-07 23:53:00
4:53 PM,43.0,39.9,89,30.25,7.0,Calm,Calm,-,0.00,Rain,Light Rain,0,2012-10-08 00:53:00
5:53 PM,42.1,39.9,92,30.24,6.0,Calm,Calm,-,0.03,Rain,Light Rain,0,2012-10-08 01:53:00
6:53 PM,42.1,39.9,92,30.24,6.0,Calm,Calm,-,0.03,Rain,Light Rain,0,2012-10-08 02:53:00
7:53 PM,42.1,39.9,92,30.24,6.0,Calm,Calm,-,0.02,Rain,Light Rain,0,2012-10-08 03:53:00
8:53 PM,41.0,39.9,96,30.23,5.0,Calm,Calm,-,0.02,Rain,Light Rain,0,2012-10-08 04:53:00
9:53 PM,41.0,39.9,96,30.23,5.0,Calm,Calm,-,0.01,Rain,Light Rain,0,2012-10-08 05:53:00
10:53 PM,39.9,39.0,97,30.22,5.0,Calm,Calm,-,0.02,Rain,Light Rain,0,2012-10-08 06:53:00
11:53 PM,39.9,39.0,97,30.21,6.0,Calm,Calm,-,0.01,Rain,Light Rain,0,2012-10-08 07:53:00